1512856800.78,44111,3.25,71822.5,-17.11,-46.27,-47.65,0,*60
1512856802.04,44112,3.25,71812.5,-17.13,-46.41,-47.93,0,*68
1512856803.31,44113,3.25,71818.3,-17.11,-46.27,-47.57,0,*63
1512856804.58,44114,3.25,71834.5,-17.13,-46.15,-47.45,0,*64
1512856805.85,44115,3.25,71822.5,-17.11,-45.95,-47.37,0,*69
1512856807.09,44116,3.25,71816.0,-17.13,-45.95,-47.23,0,*6D
1512856808.34,44117,3.25,71822.0,-17.13,-46.07,-47.31,0,*67
1512856809.61,44118,3.25,71824.8,-17.11,-46.07,-46.97,0,*67
1512856810.85,44119,3.25,71820.8,-17.11,-45.95,-46.97,0,*6E
1512856812.11,44120,3.25,71838.0,-17.11,-45.67,-46.61,0,*60
1512856813.41,44121,3.25,71846.0,-17.11,-45.47,-46.49,0,*69
1512856814.65,44122,3.25,71830.5,-17.13,-45.95,-46.69,0,*65
1512856815.88,44123,3.25,71826.5,-17.11,-45.87,-46.97,0,*64
1512856817.13,44124,3.25,71824.0,-17.11,-45.95,-46.83,0,*65
1512856818.39,44125,3.25,71832.0,-17.13,-45.81,-46.69,0,*67
1512856819.62,44126,3.25,71834.0,-17.13,-45.95,-46.83,0,*65
1512856820.86,44127,3.25,71830.0,-17.13,-45.95,-46.69,0,*60
1512856822.1,44128,3.25,71828.3,-17.13,-45.95,-47.03,0,*62
1512856823.34,44129,3.25,71830.0,-17.11,-45.95,-46.97,0,*6D
1512856824.56,44130,3.25,71830.0,-17.13,-45.95,-46.83,0,*62
1512856825.78,44131,3.25,71834.5,-17.13,-45.95,-46.83,0,*63
1512856827.05,44132,3.25,71836.3,-17.11,-45.95,-46.89,0,*68
1512856828.28,44133,3.25,71822.0,-17.13,-46.01,-46.83,0,*6F
1512856829.54,44134,3.25,71814.8,-17.13,-45.81,-46.69,0,*67
1512856830.8,44135,3.25,71822.8,-17.13,-45.81,-46.61,0,*6E
1512856832.06,44136,3.25,71828.0,-17.13,-45.81,-46.69,0,*65
1512856833.31,44137,3.25,71828.5,-17.13,-45.53,-46.69,0,*6B
1512856834.54,44138,3.25,71848.5,-17.13,-45.41,-46.61,0,*6F
1512856835.82,44139,3.25,71832.3,-17.13,-45.27,-46.61,0,*6E
1512856837.04,44140,3.25,71820.0,-17.13,-45.13,-46.55,0,*60
1512856838.29,44141,3.25,71808.0,-17.13,-45.07,-46.55,0,*64
1512856839.55,44142,3.25,71824.3,-17.11,-44.87,-46.35,0,*6A
1512856840.82,44143,3.25,71828.5,-17.13,-45.27,-46.69,0,*6B
1512856842.08,44144,3.25,71824.5,-17.11,-45.33,-47.03,0,*66
1512856843.34,44145,3.25,71810.3,-17.13,-45.27,-46.83,0,*69
1512856844.61,44146,3.25,71814.0,-17.11,-45.21,-47.03,0,*67
1512856845.86,44147,3.25,71842.0,-17.13,-45.53,-47.45,0,*63
1512856847.12,44148,3.25,71838.5,-17.11,-45.67,-47.37,0,*6C
1512856848.38,44149,3.25,71834.3,-17.11,-45.87,-47.37,0,*63
1512856849.65,44150,3.25,71830.5,-17.11,-45.87,-47.23,0,*6E
1512856850.91,44151,3.25,71834.8,-17.13,-45.81,-46.89,0,*6A
1512856852.16,44152,3.25,71832.8,-17.11,-45.95,-46.83,0,*64
1512856853.38,44153,3.25,71832.8,-17.09,-45.95,-46.97,0,*69
1512856854.62,44154,3.25,71828.3,-17.11,-45.95,-46.75,0,*6B
1512856855.86,44155,3.25,71828.5,-17.11,-45.95,-46.83,0,*63
1512856857.11,44156,3.25,71826.3,-17.09,-46.07,-46.83,0,*61
1512856858.35,44157,3.25,71826.5,-17.11,-45.87,-46.55,0,*69
1512856859.62,44158,3.25,71832.8,-17.11,-45.67,-46.61,0,*6F
1512856860.92,44159,3.25,71836.5,-17.11,-45.27,-46.49,0,*60
1512856862.22,44160,3.25,71832.8,-17.11,-45.27,-46.61,0,*60
1512856863.49,44161,3.25,71838.0,-17.09,-45.47,-47.23,0,*69
1512856864.74,44162,3.25,71836.0,-17.09,-45.53,-47.37,0,*6A
1512856865.98,44163,3.25,71840.0,-17.09,-45.67,-47.45,0,*69
1512856867.22,44164,3.25,71842.5,-17.09,-45.87,-47.37,0,*65
1512856868.48,44165,3.25,71846.0,-17.07,-45.81,-47.31,0,*6A
1512856869.69,44166,3.25,71844.3,-17.09,-45.87,-47.17,0,*65
1512856870.96,44167,3.25,71838.0,-17.07,-45.81,-47.09,0,*63
1512856872.19,44168,3.25,71830.3,-17.09,-45.95,-47.03,0,*6D
1512856873.46,44169,3.25,71820.0,-17.07,-45.87,-47.37,0,*66
1512856874.72,44170,3.25,71820.5,-17.07,-46.07,-47.57,0,*63
1512856875.99,44171,3.25,71812.8,-17.07,-46.27,-47.57,0,*60
1512856877.26,44172,3.25,71816.5,-17.07,-46.27,-47.57,0,*63
1512856878.53,44173,3.25,71826.0,-17.07,-46.07,-47.57,0,*60
1512856879.8,44174,3.25,71832.5,-17.07,-46.27,-47.57,0,*65
1512856881.07,44175,3.25,71834.3,-17.07,-46.27,-47.57,0,*64
1512856882.34,44176,3.25,71832.5,-17.07,-46.27,-47.57,0,*67
1512856883.61,44177,3.25,71832.5,-17.09,-46.27,-47.45,0,*6B
1512856884.9,44178,3.25,71822.5,-17.07,-45.81,-46.89,0,*64
1512856886.15,44179,3.25,71808.5,-17.07,-46.01,-47.09,0,*67
1512856887.39,44180,3.25,71806.3,-17.07,-46.01,-47.09,0,*61
1512856888.63,44181,3.25,71790.8,-17.07,-46.21,-47.09,0,*62
1512856889.9,44182,3.25,71820.8,-17.07,-45.87,-46.89,0,*67
1512856891.17,44183,3.25,71818.0,-17.07,-46.21,-47.37,0,*6D
1512856892.46,44184,3.25,71820.5,-17.07,-46.07,-47.37,0,*6E
1512856893.71,44185,3.25,71816.8,-17.07,-46.01,-47.17,0,*6B
1512856894.98,44186,3.25,71814.0,-17.07,-46.01,-47.37,0,*6A
1512856896.23,44187,3.25,71838.8,-17.07,-46.01,-47.31,0,*6D
1512856897.47,44188,3.25,71824.8,-17.07,-45.87,-47.31,0,*6F
1512856898.74,44189,3.25,71816.0,-17.07,-45.87,-47.37,0,*68
1512856900.01,44190,3.25,71816.5,-17.07,-46.01,-47.37,0,*6D
1512856901.27,44191,3.25,71832.5,-17.07,-46.41,-47.51,0,*68
1512856902.54,44192,3.25,71826.5,-17.07,-46.49,-47.51,0,*63
1512856903.8,44193,3.25,71828.0,-17.07,-46.41,-47.51,0,*6A
1512856905.05,44194,3.25,71824.8,-17.07,-46.55,-47.51,0,*68
1512856906.27,44195,3.25,71826.0,-17.09,-46.21,-47.31,0,*62
1512856907.51,44196,3.25,71828.3,-17.09,-46.27,-47.17,0,*63
1512856908.76,44197,3.25,71832.0,-17.07,-46.21,-47.31,0,*6E
1512856909.99,44198,3.25,71834.8,-17.07,-45.87,-47.17,0,*6A
1512856911.26,44199,3.25,71834.8,-17.09,-45.47,-46.61,0,*69
1512856912.51,44200,3.25,71834.8,-17.07,-45.13,-46.55,0,*62
1512856913.76,44201,3.25,71826.3,-17.07,-44.61,-46.01,0,*66
1512856915.01,44202,3.25,71814.5,-17.05,-44.93,-46.21,0,*68
1512856916.28,44203,3.25,71810.5,-17.03,-45.33,-46.49,0,*6A
1512856917.51,44204,3.25,71806.3,-17.05,-45.81,-47.09,0,*67
1512856918.78,44205,3.25,71798.0,-17.03,-45.95,-47.23,0,*6D
1512856920.06,44206,3.25,71810.3,-17.03,-46.01,-47.45,0,*60
1512856921.32,44207,3.25,71812.0,-17.03,-45.81,-47.31,0,*69
1512856922.59,44208,3.25,71802.3,-17.03,-45.95,-47.45,0,*60
1512856923.87,44209,3.25,71810.0,-17.03,-46.01,-47.23,0,*6F
1512856925.17,44210,3.25,71832.0,-17.03,-46.15,-47.45,0,*62
1512856926.47,44211,3.25,71824.8,-17.03,-46.15,-47.45,0,*63
1512856927.74,44212,3.19,71816.5,-17.03,-46.15,-47.51,0,*65
1512856928.99,44213,3.25,71822.0,-17.03,-46.35,-47.65,0,*61
1512856930.28,44214,3.25,71830.8,-17.03,-46.49,-47.71,0,*68
1512856931.56,44215,3.25,71830.8,-17.03,-46.49,-47.85,0,*62
1512856932.85,44216,3.25,71830.5,-17.03,-46.61,-47.71,0,*60
1512856934.08,44217,3.19,71834.5,-17.05,-46.75,-47.93,0,*6E
1512856935.35,44218,3.25,71824.3,-17.03,-46.41,-47.65,0,*69
1512856936.61,44219,3.19,71824.0,-17.03,-46.41,-47.65,0,*68
1512856937.87,44220,3.25,71834.5,-17.03,-46.21,-47.71,0,*61
1512856939.14,44221,3.25,71832.5,-17.03,-46.41,-47.51,0,*64
1512856940.41,44222,3.25,71816.5,-17.03,-46.15,-47.31,0,*60
1512856941.7,44223,3.19,71808.8,-17.03,-45.81,-46.69,0,*63
1512856942.94,44224,3.25,71816.3,-17.03,-45.33,-46.35,0,*64
1512856944.19,44225,3.25,71824.0,-17.03,-45.21,-46.35,0,*66
1512856945.42,44226,3.25,71830.5,-17.05,-45.21,-46.55,0,*65
1512856946.66,44227,3.19,71826.8,-17.01,-45.33,-46.49,0,*6E
1512856947.91,44228,3.25,71832.8,-17.01,-45.21,-46.41,0,*6A
1512856949.15,44229,3.25,71828.5,-17.01,-45.33,-46.49,0,*60
1512856950.43,44230,3.19,71830.8,-16.99,-45.13,-46.41,0,*62
1512856951.66,44231,3.25,71822.5,-17.01,-45.33,-46.61,0,*63
1512856952.9,44232,3.25,71826.3,-17.01,-45.61,-47.23,0,*60
1512856954.17,44233,3.25,71828.8,-17.01,-45.73,-47.45,0,*62
1512856955.44,44234,3.25,71830.8,-16.99,-45.67,-47.23,0,*60
1512856956.68,44235,3.19,71822.0,-17.01,-46.15,-47.51,0,*62
1512856957.93,44236,3.25,71824.3,-17.01,-46.35,-47.45,0,*66
1512856959.2,44237,3.25,71822.5,-16.99,-45.95,-47.37,0,*6B
1512856960.42,44238,3.25,71828.5,-17.01,-46.01,-47.51,0,*6A
1512856961.64,44239,3.19,71834.0,-17.01,-46.21,-47.51,0,*69
1512856962.88,44240,3.19,71832.3,-17.01,-46.01,-47.37,0,*65
1512856964.1,44241,3.25,71828.5,-17.01,-46.01,-47.31,0,*62
1512856965.37,44242,3.25,71832.0,-16.99,-45.95,-47.23,0,*6C
1512856966.62,44243,3.25,71828.8,-17.01,-46.15,-47.51,0,*63
1512856967.83,44244,3.25,71828.8,-17.01,-46.21,-47.65,0,*64
1512856969.07,44245,3.19,71832.0,-17.01,-46.41,-47.85,0,*6D
1512856970.32,44246,3.19,71834.8,-17.01,-46.61,-47.85,0,*6C
1512856971.55,44247,3.25,71836.0,-17.01,-46.61,-47.65,0,*63
1512856972.83,44248,3.25,71832.3,-16.99,-46.27,-47.51,0,*69
1512856974.13,44249,3.25,71836.3,-16.99,-46.15,-47.37,0,*69
1512856975.41,44250,3.25,71836.5,-16.99,-46.35,-47.45,0,*66
1512856976.69,44251,3.25,71830.0,-16.99,-46.15,-46.97,0,*6B
1512856977.98,44252,3.25,71826.8,-16.99,-46.07,-47.03,0,*67
1512856979.28,44253,3.25,71832.3,-16.99,-46.15,-47.37,0,*62
1512856980.56,44254,3.25,71824.3,-16.99,-46.15,-47.17,0,*67
1512856981.8,44255,3.25,71828.0,-16.99,-46.55,-47.57,0,*66
1512856983.03,44256,3.25,71830.5,-16.97,-46.41,-47.57,0,*6E
1512856984.25,44257,3.25,71830.5,-16.97,-46.35,-47.65,0,*6D
1512856985.47,44258,3.19,71834.3,-16.97,-46.35,-47.57,0,*63
1512856986.73,44259,3.25,71840.0,-16.99,-46.41,-47.65,0,*6E
1512856987.97,44260,3.25,71838.0,-16.97,-46.75,-47.93,0,*64
1512856989.18,44261,3.25,71832.8,-16.97,-46.55,-47.65,0,*6E
1512856990.46,44262,3.25,71836.5,-16.99,-46.83,-47.93,0,*61
1512856991.74,44263,3.25,71838.0,-16.99,-46.97,-48.13,0,*62
1512856992.98,44264,3.25,71834.8,-16.97,-46.75,-47.79,0,*64
1512856994.22,44265,3.25,71836.5,-16.97,-46.61,-47.85,0,*63
1512856995.5,44266,3.25,71836.3,-16.95,-46.61,-47.85,0,*62
1512856996.72,44267,3.25,71840.5,-16.97,-46.83,-48.07,0,*68
1512856997.97,44268,3.25,71844.3,-16.97,-46.83,-47.93,0,*65
1512856999.24,44269,3.25,71842.0,-16.95,-46.83,-48.13,0,*61
1512857000.47,44270,3.25,71834.5,-16.97,-46.83,-47.85,0,*6B
1512857001.69,44271,3.25,71836.3,-16.97,-46.83,-47.85,0,*6A
1512857002.94,44272,3.25,71834.3,-16.97,-46.97,-47.93,0,*6B
1512857004.18,44273,3.25,71840.5,-16.97,-47.03,-48.07,0,*64
1512857005.42,44274,3.19,71836.3,-16.97,-46.41,-47.57,0,*6E
1512857006.68,44275,3.25,71836.5,-16.95,-46.61,-47.65,0,*6E
1512857007.93,44276,3.25,71842.3,-16.95,-46.75,-47.85,0,*66
1512857009.16,44277,3.25,71838.8,-16.97,-46.83,-48.07,0,*69
1512857010.38,44278,3.25,71840.5,-16.97,-46.75,-48.07,0,*6F
1512857011.62,44279,3.25,71836.3,-16.97,-46.75,-47.79,0,*68
1512857012.85,44280,3.25,71828.3,-16.97,-46.83,-48.07,0,*61
1512857014.09,44281,3.25,71826.3,-16.97,-47.17,-48.27,0,*6E
1512857015.34,44282,3.25,71826.5,-16.97,-46.83,-48.13,0,*66
1512857016.61,44283,3.25,71828.8,-16.97,-47.03,-48.27,0,*69
1512857017.88,44284,3.25,71826.3,-16.97,-47.03,-48.13,0,*69
1512857019.16,44285,3.19,71810.5,-16.99,-46.97,-48.13,0,*6A
1512857020.41,44286,3.25,71800.3,-16.99,-46.97,-47.85,0,*69
1512857021.69,44287,3.25,71804.5,-16.99,-46.55,-47.23,0,*6A
1512857022.97,44288,3.25,71806.8,-16.99,-46.15,-46.35,0,*67
1512857024.23,44289,3.19,71814.0,-16.97,-45.73,-46.61,0,*6A
1512857025.47,44290,3.25,71828.0,-16.95,-45.95,-46.97,0,*61
1512857026.74,44291,3.25,71836.0,-16.97,-46.15,-47.37,0,*62
1512857028.04,44292,3.25,71826.0,-16.95,-46.07,-47.23,0,*65
1512857029.31,44293,3.25,71820.0,-16.97,-46.07,-47.37,0,*63
1512857030.57,44294,3.25,71812.0,-16.95,-46.27,-47.57,0,*62
1512857031.81,44295,3.25,71812.3,-16.97,-46.41,-47.65,0,*60
1512857033.02,44296,3.25,71826.5,-16.97,-46.75,-47.65,0,*64
1512857034.25,44297,3.19,71824.0,-16.97,-46.97,-47.85,0,*67
1512857035.47,44298,3.19,71812.3,-16.97,-46.97,-48.07,0,*6D
1512857036.73,44299,3.19,71808.0,-16.95,-46.83,-47.85,0,*6E
1512857037.97,44300,3.19,71834.5,-16.99,-46.75,-47.85,0,*6A
1512857039.22,44301,3.25,71838.0,-16.97,-46.97,-48.27,0,*6E
1512857040.45,44302,3.25,71840.0,-16.97,-46.97,-48.07,0,*6F
1512857041.7,44303,3.25,71830.3,-16.95,-46.97,-48.07,0,*6C
1512857042.96,44304,3.19,71806.0,-16.99,-46.97,-48.07,0,*67
1512857044.21,44305,3.25,71792.5,-16.97,-46.83,-47.93,0,*6F
1512857045.42,44306,3.19,71800.3,-16.97,-46.55,-47.57,0,*6F
1512857046.64,44307,3.25,71822.8,-16.97,-46.55,-47.57,0,*6E
1512857047.91,44308,3.19,71812.8,-16.95,-46.35,-47.23,0,*66
1512857049.15,44309,3.25,71804.5,-16.97,-46.55,-47.37,0,*66
1512857050.37,44310,3.19,71800.5,-16.97,-46.55,-47.57,0,*68
1512857051.67,44311,3.25,71808.5,-16.95,-46.15,-47.37,0,*69
1512857052.97,44312,3.19,71812.0,-16.95,-46.15,-47.45,0,*6F
1512857054.23,44313,3.19,71814.8,-16.97,-46.61,-47.93,0,*64
1512857055.48,44314,3.25,71820.5,-16.97,-46.83,-48.13,0,*68
1512857056.73,44315,3.25,71820.3,-16.95,-46.83,-47.85,0,*6B
1512857057.98,44316,3.25,71818.8,-16.97,-46.97,-48.13,0,*6F
1512857059.26,44317,3.19,71816.0,-16.95,-46.97,-48.13,0,*6C
1512857060.53,44318,3.25,71810.0,-16.95,-46.83,-47.93,0,*61
1512857061.75,44319,3.25,71790.3,-16.97,-46.75,-47.85,0,*6C
1512857062.96,44320,3.19,71808.5,-16.97,-46.55,-47.57,0,*6B
1512857064.24,44321,3.25,71824.8,-16.97,-46.07,-47.45,0,*6E
1512857065.5,44322,3.19,71824.0,-16.95,-46.27,-47.65,0,*6F
1512857066.77,44323,3.25,71826.8,-16.95,-46.61,-47.65,0,*6C
1512857067.99,44324,3.25,71828.5,-16.97,-46.55,-47.85,0,*60
1512857069.29,44325,3.25,71830.3,-16.95,-47.03,-48.13,0,*61
1512857070.56,44326,3.25,71828.3,-16.95,-46.97,-48.27,0,*69
1512857071.81,44327,3.25,71822.5,-16.97,-46.83,-47.93,0,*6F
1512857073.06,44328,3.25,71824.3,-16.97,-46.97,-48.13,0,*62
1512857074.33,44329,3.25,71826.5,-16.95,-46.97,-48.27,0,*66
1512857075.6,44330,3.25,71836.8,-16.97,-47.03,-48.13,0,*67
1512857076.85,44331,3.25,71832.3,-16.97,-46.83,-47.93,0,*68
1512857078.07,44332,3.19,71828.3,-16.97,-46.83,-47.85,0,*6C
1512857079.33,44333,3.25,71830.8,-16.97,-47.03,-47.93,0,*63
1512857080.61,44334,3.25,71834.0,-16.95,-46.97,-47.93,0,*6A
1512857081.83,44335,3.25,71836.3,-16.97,-46.83,-48.07,0,*6E
1512857083.1,44336,3.19,71836.5,-16.97,-47.03,-48.13,0,*61
1512857084.37,44337,3.25,71836.3,-16.95,-47.17,-48.27,0,*60
1512857085.61,44338,3.19,71834.5,-16.97,-47.23,-48.49,0,*62
1512857086.91,44339,3.25,71838.5,-16.95,-47.23,-48.13,0,*6E
1512857088.21,44340,3.19,71832.3,-16.95,-47.23,-48.13,0,*60
1512857089.48,44341,3.25,71836.0,-16.95,-47.37,-48.49,0,*6B
1512857090.75,44342,3.25,71834.5,-16.97,-47.37,-48.27,0,*62
1512857091.99,44343,3.19,71832.8,-16.97,-47.45,-48.49,0,*6E
1512857093.27,44344,3.25,71834.3,-16.97,-47.37,-48.13,0,*63
1512857094.54,44345,3.25,71836.3,-16.97,-47.37,-48.27,0,*65
1512857095.81,44346,3.25,71842.0,-16.97,-47.37,-48.35,0,*65
1512857097.11,44347,3.25,71840.8,-16.95,-47.45,-48.35,0,*63
1512857098.38,44348,3.25,71844.3,-16.97,-47.37,-48.35,0,*6B
1512857099.66,44349,3.19,71842.3,-16.97,-47.45,-48.27,0,*6C
1512857100.91,44350,3.19,71838.5,-16.97,-47.23,-48.07,0,*66
1512857102.18,44351,3.19,71844.0,-16.97,-47.23,-48.13,0,*62
1512857103.42,44352,3.25,71854.0,-16.97,-47.03,-47.85,0,*63
1512857104.67,44353,3.19,71842.0,-16.97,-46.97,-47.79,0,*6D
1512857105.9,44354,3.19,71840.8,-16.97,-46.97,-47.85,0,*69
1512857107.15,44355,3.19,71840.0,-16.97,-46.83,-47.79,0,*6E
1512857108.45,44356,3.25,71850.5,-16.99,-46.61,-47.79,0,*6F
1512857109.66,44357,3.25,71842.5,-16.97,-46.75,-47.65,0,*68
1512857110.87,44358,3.25,71838.0,-16.97,-46.55,-47.65,0,*65
1512857112.09,44359,3.19,71842.8,-16.97,-46.75,-47.85,0,*68
1512857113.34,44360,3.25,71844.0,-16.97,-46.61,-47.85,0,*67
1512857114.58,44361,3.25,71842.0,-16.97,-46.61,-48.07,0,*63
1512857115.83,44362,3.25,71840.0,-16.97,-46.83,-48.35,0,*6D
1512857117.07,44363,3.25,71842.5,-16.97,-47.23,-48.49,0,*6C
1512857118.31,44364,3.19,71838.8,-16.97,-47.23,-48.49,0,*6B
1512857119.58,44365,3.25,71842.3,-16.97,-47.23,-48.35,0,*61
1512857120.88,44366,3.25,71844.5,-16.95,-47.37,-48.27,0,*66
1512857122.12,44367,3.25,71846.8,-16.97,-47.17,-48.13,0,*60
1512857123.37,44368,3.19,71846.8,-16.97,-47.37,-48.49,0,*62
1512857124.62,44369,3.25,71844.8,-16.97,-47.45,-48.55,0,*6B
1512857125.92,44370,3.19,71846.5,-16.95,-47.23,-48.35,0,*67
1512857127.19,44371,3.19,71846.3,-16.97,-47.23,-48.35,0,*64
1512857128.46,44372,3.25,71848.0,-16.95,-47.45,-48.49,0,*6E
1512857129.7,44373,3.19,71844.0,-16.97,-47.45,-48.49,0,*6D
1512857130.97,44374,3.19,71846.5,-16.97,-47.37,-48.35,0,*64
1512857132.24,44375,3.19,71840.8,-16.95,-47.45,-48.49,0,*69
1512857133.49,44376,3.19,71844.3,-16.97,-47.65,-48.69,0,*68
1512857134.73,44377,3.19,71846.5,-16.97,-47.65,-48.77,0,*66
1512857136.0,44378,3.19,71844.8,-16.95,-47.45,-48.49,0,*64
1512857137.24,44379,3.19,71844.8,-16.97,-47.65,-48.77,0,*68
1512857138.51,44380,3.19,71844.0,-16.97,-47.79,-48.77,0,*63
1512857139.76,44381,3.19,71850.3,-16.97,-47.57,-48.77,0,*6E
1512857141.03,44382,3.25,71850.8,-16.99,-47.37,-48.49,0,*68
1512857142.28,44383,3.19,71848.5,-16.99,-47.57,-48.55,0,*62
1512857143.53,44384,3.25,71850.5,-16.99,-47.57,-48.49,0,*68
1512857144.8,44385,3.19,71848.3,-16.99,-47.65,-48.69,0,*6A
1512857146.08,44386,3.19,71848.0,-16.99,-47.79,-48.55,0,*6B
1512857147.38,44387,3.19,71844.8,-16.99,-47.45,-48.27,0,*60
1512857148.66,44388,3.19,71842.8,-16.99,-47.23,-48.07,0,*6D
1512857149.93,44389,3.19,71832.8,-17.01,-47.23,-48.35,0,*6D
1512857151.2,44390,3.19,71830.8,-16.99,-47.23,-48.49,0,*6E
1512857152.44,44391,3.19,71830.3,-17.01,-47.45,-48.49,0,*6F
1512857153.67,44392,3.19,71824.0,-17.01,-47.31,-48.55,0,*62
1512857154.93,44393,3.19,71818.8,-16.97,-47.37,-48.55,0,*6B
1512857156.18,44394,3.19,71818.5,-16.99,-47.57,-48.55,0,*64
1512857157.43,44395,3.19,71818.5,-17.01,-47.45,-48.55,0,*66
1512857158.71,44396,3.19,71828.3,-16.99,-47.45,-48.49,0,*68
1512857159.93,44397,3.19,71854.0,-17.01,-47.65,-48.63,0,*63
1512857161.17,44398,3.25,71834.5,-17.01,-47.09,-47.93,0,*66
1512857162.39,44399,3.19,71828.0,-17.01,-46.83,-47.85,0,*63
1512857163.64,44400,3.19,71828.8,-17.01,-47.45,-48.21,0,*6E
1512857164.91,44401,3.19,71834.5,-17.01,-47.45,-48.35,0,*6A
1512857166.22,44402,3.19,71840.8,-16.99,-47.37,-48.27,0,*6F
1512857167.52,44403,3.19,71840.3,-16.99,-47.45,-48.27,0,*6B
1512857168.77,44404,3.19,71826.5,-16.99,-47.17,-48.07,0,*69
1512857170.07,44405,3.25,71830.5,-16.99,-47.23,-48.27,0,*6D
1512857171.34,44406,3.19,71814.3,-17.01,-47.45,-48.35,0,*6D
1512857172.65,44407,3.19,71824.8,-16.99,-47.37,-48.27,0,*6A
1512857173.92,44408,3.25,71838.0,-16.97,-47.45,-48.13,0,*69
1512857175.19,44409,3.19,71844.5,-17.01,-47.45,-48.35,0,*62
1512857176.45,44410,3.19,71836.0,-16.99,-46.83,-47.85,0,*65
1512857177.7,44411,3.19,71834.8,-16.99,-46.97,-47.65,0,*6F
1512857178.97,44412,3.19,71838.0,-16.99,-47.03,-47.85,0,*6E
1512857180.26,44413,3.19,71834.8,-16.99,-47.23,-47.93,0,*6A
1512857181.57,44414,3.19,71830.5,-16.99,-47.03,-47.79,0,*6B
1512857182.78,44415,3.19,71804.5,-16.97,-46.97,-47.57,0,*64
1512857184.0,44416,3.19,71804.3,-16.97,-47.17,-47.85,0,*61
1512857185.29,44417,3.19,71804.0,-16.95,-47.23,-47.93,0,*62
1512857186.54,44418,3.19,71808.3,-16.97,-47.23,-48.07,0,*6D
1512857187.82,44419,3.25,71820.3,-16.95,-47.45,-48.07,0,*6E
1512857189.06,44420,3.19,71808.0,-16.97,-47.57,-47.93,0,*67
1512857190.33,44421,3.19,71820.3,-16.97,-47.45,-47.93,0,*65
1512857191.6,44422,3.19,71828.8,-16.97,-47.23,-47.79,0,*62
1512857192.88,44423,3.19,71806.8,-16.95,-46.97,-47.45,0,*60
1512857194.13,44424,3.19,71798.8,-16.97,-46.97,-47.45,0,*65
1512857195.35,44425,3.19,71808.5,-16.97,-46.83,-47.57,0,*62
1512857196.6,44426,3.19,71834.8,-16.97,-46.83,-47.45,0,*62
1512857197.85,44427,3.19,71814.0,-16.97,-46.75,-47.45,0,*6A
1512857199.11,44428,3.19,71776.3,-16.95,-46.61,-47.17,0,*65
1512857200.38,44429,3.19,71800.8,-16.97,-46.61,-47.23,0,*61
1512857201.67,44430,3.19,71814.3,-16.95,-46.61,-47.37,0,*6E
1512857202.92,44431,3.19,71826.0,-16.95,-46.83,-47.57,0,*65
1512857204.17,44432,3.19,71830.0,-16.95,-46.97,-47.57,0,*63
1512857205.42,44433,3.19,71824.8,-16.91,-46.97,-47.85,0,*69
1512857206.67,44434,3.19,71832.3,-16.91,-47.31,-47.99,0,*6E
1512857207.97,44435,3.19,71834.8,-16.95,-47.45,-48.13,0,*65
1512857209.22,44436,3.25,71832.5,-16.97,-47.45,-48.07,0,*61
1512857210.46,44437,3.19,71830.3,-16.95,-47.65,-48.49,0,*6A
1512857211.73,44438,3.19,71834.0,-16.95,-47.57,-48.27,0,*6C
1512857213.02,44439,3.19,71830.8,-16.95,-47.37,-47.93,0,*6B
1512857214.33,44440,3.19,71830.0,-16.95,-47.45,-48.13,0,*67
1512857215.57,44441,3.19,71832.3,-16.97,-47.23,-47.85,0,*64
1512857216.82,44442,3.19,71834.8,-16.97,-47.23,-47.85,0,*67
1512857218.07,44443,3.19,71832.0,-16.97,-47.37,-48.07,0,*66
1512857219.37,44444,3.19,71838.8,-16.95,-47.03,-47.79,0,*62
1512857220.63,44445,3.19,71842.8,-16.95,-47.03,-47.65,0,*6E
1512857221.93,44446,3.19,71842.8,-16.95,-47.37,-47.93,0,*63
1512857223.21,44447,3.19,71838.8,-16.95,-47.37,-48.07,0,*60
1512857224.45,44448,3.19,71838.0,-16.97,-46.97,-47.79,0,*60
1512857225.75,44449,3.19,71838.8,-16.95,-47.37,-47.93,0,*6C
1512857227.03,44450,3.19,71842.8,-16.95,-47.37,-48.07,0,*66
1512857228.3,44451,3.19,71844.3,-16.95,-47.57,-48.13,0,*64
1512857229.6,44452,3.19,71844.0,-16.95,-47.45,-48.13,0,*64
1512857230.85,44453,3.19,71844.8,-16.95,-47.57,-48.07,0,*63
1512857232.13,44454,3.19,71840.0,-16.95,-47.37,-48.07,0,*62
1512857233.41,44455,3.19,71840.5,-16.95,-47.45,-48.07,0,*66
1512857234.69,44456,3.19,71832.5,-16.97,-47.45,-48.13,0,*62
1512857235.98,44457,3.19,71830.0,-16.95,-47.45,-47.93,0,*66
1512857237.24,44458,3.19,71842.5,-16.97,-47.45,-48.07,0,*69
1512857238.46,44459,3.19,71834.0,-16.97,-47.65,-48.07,0,*6A
1512857239.7,44460,3.19,71840.5,-16.97,-47.57,-48.13,0,*64
1512857240.94,44461,3.19,71842.8,-16.97,-47.65,-48.35,0,*60
1512857242.21,44462,3.19,71838.8,-16.97,-47.79,-48.35,0,*6E
1512857243.51,44463,3.25,71842.3,-16.95,-47.79,-48.13,0,*69
1512857244.75,44464,3.19,71838.0,-16.97,-47.79,-48.49,0,*63
1512857246.02,44465,3.19,71838.8,-16.97,-47.23,-47.93,0,*65
1512857247.27,44466,3.19,71838.8,-16.97,-47.37,-48.07,0,*61
1512857248.55,44467,3.19,71836.0,-16.97,-47.45,-48.13,0,*60
1512857249.82,44468,3.19,71838.5,-16.97,-47.45,-48.13,0,*6F
1512857251.06,44469,3.19,71840.3,-16.97,-47.65,-48.35,0,*68
1512857252.33,44470,3.19,71846.0,-16.99,-47.79,-48.49,0,*68
1512857253.58,44471,3.19,71842.5,-16.97,-47.57,-48.35,0,*60
1512857254.85,44472,3.25,71844.5,-16.99,-47.79,-48.49,0,*6A
1512857256.13,44473,3.25,71846.3,-16.99,-47.79,-48.55,0,*66
1512857257.38,44474,3.19,71842.0,-16.97,-47.85,-48.69,0,*63
1512857258.66,44475,3.19,71840.5,-16.99,-48.07,-48.69,0,*69
1512857259.9,44476,3.19,71844.5,-16.97,-47.93,-48.49,0,*64
1512857261.17,44477,3.19,71846.0,-17.01,-48.13,-48.77,0,*61
1512857262.45,44478,3.19,71836.8,-16.99,-48.07,-48.69,0,*64
1512857263.7,44479,3.19,71840.3,-16.97,-47.93,-48.55,0,*66
1512857264.95,44480,3.19,71840.5,-17.01,-47.93,-48.41,0,*6B
1512857266.22,44481,3.19,71842.0,-16.99,-47.93,-48.49,0,*62
1512857267.5,44482,3.19,71846.0,-16.99,-47.93,-48.55,0,*6C
1512857268.78,44483,3.19,71840.3,-16.99,-47.93,-48.55,0,*6D
1512857270.06,44484,3.19,71840.3,-16.99,-47.79,-48.55,0,*6E
1512857271.34,44485,3.19,71842.3,-16.99,-47.93,-48.55,0,*6B
1512857272.64,44486,3.19,71836.8,-16.99,-47.93,-48.77,0,*68
1512857273.89,44487,3.19,71836.8,-17.01,-48.13,-48.63,0,*6B
1512857275.14,44488,3.19,71840.8,-17.01,-48.13,-48.63,0,*64
1512857276.4,44489,3.19,71840.5,-17.01,-48.35,-48.77,0,*64
1512857277.65,44490,3.19,71838.0,-17.01,-48.13,-48.83,0,*63
1512857278.9,44491,3.19,71842.5,-16.99,-48.07,-48.49,0,*61
1512857280.12,44492,3.19,71840.3,-17.01,-48.21,-48.63,0,*6E
1512857281.42,44493,3.19,71836.5,-16.99,-48.27,-48.69,0,*63
1512857282.66,44494,3.25,71840.0,-17.01,-48.13,-48.41,0,*69
1512857283.89,44495,3.19,71838.3,-17.01,-48.21,-48.55,0,*6C
1512857285.13,44496,3.19,71838.3,-17.01,-48.35,-48.55,0,*6A
1512857286.36,44497,3.19,71840.0,-17.01,-48.21,-48.41,0,*6B
1512857287.62,44498,3.19,71838.3,-17.03,-47.71,-47.85,0,*6B
1512857288.87,44499,3.19,71842.8,-17.03,-47.85,-47.85,0,*61
1512857290.14,44500,3.19,71836.0,-17.03,-47.65,-47.93,0,*69
1512857291.4,44501,3.19,71832.3,-17.03,-47.65,-48.13,0,*6F
1512857292.62,44502,3.19,71836.8,-17.05,-47.57,-48.21,0,*6A
1512857293.87,44503,3.19,71838.8,-17.03,-47.51,-48.21,0,*6B
1512857295.14,44504,3.19,71838.8,-17.03,-47.65,-48.35,0,*6E
1512857296.36,44505,3.19,71838.0,-17.05,-47.99,-48.55,0,*6C
1512857297.61,44506,3.19,71840.5,-17.03,-47.85,-48.63,0,*61
1512857298.88,44507,3.19,71836.3,-17.05,-47.93,-48.69,0,*6B
1512857300.15,44508,3.19,71838.5,-17.03,-47.71,-48.41,0,*64
1512857301.39,44509,3.19,71840.0,-17.03,-47.65,-48.41,0,*60
1512857302.63,44510,3.19,71832.0,-17.05,-47.79,-48.49,0,*6B